Date String (YYYY-MM-DD hh:mm:ss) UTC,Instrument flags,Ambient pressure (hPa),Sample flow (lpm),Bypass flow (lpm),Sample temperature (°C),Ambient temperature (°C),ASC tube jacket temperature (°C),LED temperature (°C),Box temperature (°C),Sample RH (%),Span deviation,Mass concentration (μg/m³),Mass concentration (μg/m³),Mass concentration (μg/m³)
DateTimeUTC,F1_M11,P_M11,Q1_M11,Q2_M11,T1_M11,T2_M11,T3_M11,T4_M11,T5_M11,U1_M11,ZSPAN_M11,X0_M11,X2_M11,X1_M11
2022-06-21 00:00:00,,0824.4,5.00,0.00,29.2,27.4,00.0,37.9,31.0,07.5,0000.0,0011.48,0004.49,0002.89
2022-06-21 00:01:00,,0824.4,5.01,0.00,29.2,27.6,00.0,37.9,31.1,07.6,0000.0,0011.61,0004.54,0002.88
2022-06-21 00:02:00,,0824.4,5.01,0.00,29.2,27.8,00.0,37.9,31.1,07.5,0000.0,0011.75,0004.58,0002.88
2022-06-21 00:03:00,,0824.4,4.99,0.00,29.2,28.0,00.0,38.0,31.2,07.3,0000.0,0010.91,0004.56,0002.88
2022-06-21 00:04:00,,0824.3,5.00,0.00,29.3,28.2,00.0,38.0,31.3,07.3,0000.0,0011.02,0004.57,0002.88
2022-06-21 00:05:00,,0824.4,5.00,0.00,29.3,28.3,00.0,38.0,31.3,07.2,0000.0,0011.09,0004.64,0002.89
2022-06-21 00:06:00,,0824.3,4.99,0.00,29.3,28.5,00.0,38.0,31.4,07.2,0000.0,0011.05,0004.65,0002.90
2022-06-21 00:07:00,,0824.3,5.00,0.00,29.4,28.5,00.0,38.0,31.4,07.3,0000.0,0011.60,0004.65,0002.90
2022-06-21 00:08:00,,0824.3,5.00,0.00,29.4,27.7,00.0,38.0,31.2,07.3,0000.0,0011.78,0004.66,0002.89
2022-06-21 00:09:00,,0824.4,5.02,0.00,29.3,26.9,00.0,37.9,31.0,07.3,0000.0,0011.78,0004.69,0002.89
2022-06-21 00:10:00,,0824.4,5.00,0.00,29.2,26.9,00.0,37.9,30.9,07.3,0000.0,0012.55,0004.69,0002.89
2022-06-21 00:11:00,,0824.4,5.00,0.00,29.2,27.0,00.0,37.9,30.9,07.6,0000.0,0012.31,0004.66,0002.89
2022-06-21 00:12:00,,0824.3,5.01,0.00,29.1,27.1,00.0,37.9,31.0,07.6,0000.0,0012.15,0004.64,0002.90
2022-06-21 00:13:00,,0824.2,5.01,0.00,29.1,27.4,00.0,37.9,31.0,07.6,0000.0,0012.55,0004.69,0002.90
2022-06-21 00:14:00,,0824.3,5.00,0.00,29.1,27.6,00.0,37.9,31.1,07.5,0000.0,0013.16,0004.74,0002.90
2022-06-21 00:15:00,,0824.4,4.98,0.00,29.2,27.8,00.0,37.9,31.1,07.2,0000.0,0013.38,0004.77,0002.91
2022-06-21 00:16:00,,0824.3,4.99,0.00,29.2,28.0,00.0,37.9,31.2,07.3,0000.0,0013.29,0004.71,0002.92
2022-06-21 00:17:00,,0824.5,5.01,0.00,29.2,28.1,00.0,38.0,31.2,07.3,0000.0,0013.44,0004.72,0002.91
2022-06-21 00:18:00,,0824.4,5.00,0.00,29.3,28.3,00.0,38.0,31.3,07.1,0000.0,0012.90,0004.73,0002.92
2022-06-21 00:19:00,,0824.6,5.00,0.00,29.3,28.4,00.0,38.0,31.3,07.3,0000.0,0012.56,0004.70,0002.94
2022-06-21 00:20:00,,0824.5,5.00,0.00,29.4,28.5,00.0,38.0,31.4,07.3,0000.0,0012.38,0004.62,0002.93
2022-06-21 00:21:00,,0824.4,5.00,0.00,29.4,28.5,00.0,38.0,31.4,07.3,0000.0,0011.57,0004.57,0002.93
2022-06-21 00:22:00,,0824.6,5.00,0.00,29.4,27.6,00.0,38.0,31.2,07.3,0000.0,0011.51,0004.60,0002.92
2022-06-21 00:23:00,,0824.5,5.01,0.00,29.3,27.0,00.0,37.9,31.0,07.3,0000.0,0011.44,0004.60,0002.92
2022-06-21 00:24:00,,0824.4,5.01,0.00,29.2,27.0,00.0,37.9,31.0,07.3,0000.0,0011.79,0004.58,0002.93
2022-06-21 00:25:00,,0824.6,4.99,0.00,29.2,27.1,00.0,37.9,31.0,07.2,0000.0,0011.55,0004.58,0002.94
2022-06-21 00:26:00,,0824.6,5.00,0.00,29.2,27.2,00.0,37.9,31.0,07.2,0000.0,0011.27,0004.56,0002.94
2022-06-21 00:27:00,,0824.7,4.99,0.00,29.2,27.4,00.0,37.9,31.0,07.4,0000.0,0011.33,0004.63,0002.94
2022-06-21 00:28:00,,0824.6,5.00,0.00,29.2,27.6,00.0,37.9,31.1,07.4,0000.0,0011.95,0004.62,0002.94
2022-06-21 00:29:00,,0824.6,5.00,0.00,29.2,27.8,00.0,37.9,31.2,07.3,0000.0,0012.19,0004.62,0002.95
2022-06-21 00:30:00,,0824.7,5.00,0.00,29.2,28.0,00.0,38.0,31.2,07.2,0000.0,0012.59,0004.64,0002.95
2022-06-21 00:31:00,,0824.7,5.00,0.00,29.3,28.2,00.0,38.0,31.3,07.3,0000.0,0013.17,0004.68,0002.96
2022-06-21 00:32:00,,0824.7,5.00,0.00,29.3,28.3,00.0,38.0,31.3,07.3,0000.0,0013.57,0004.74,0002.98
2022-06-21 00:33:00,,0824.6,4.99,0.00,29.3,28.5,00.0,38.0,31.4,07.3,0000.0,0013.60,0004.74,0003.00
2022-06-21 00:34:00,,0824.5,5.01,0.00,29.4,28.5,00.0,38.0,31.4,07.3,0000.0,0014.03,0004.78,0003.01
2022-06-21 00:35:00,,0824.6,5.00,0.00,29.4,27.9,00.0,38.0,31.3,07.1,0000.0,0014.04,0004.78,0003.00
2022-06-21 00:36:00,,0824.6,4.99,0.00,29.3,27.1,00.0,37.9,31.1,07.1,0000.0,0013.61,0004.76,0003.01
2022-06-21 00:37:00,,0824.6,5.00,0.00,29.2,26.9,00.0,37.9,31.0,07.2,0000.0,0014.14,0004.73,0003.00
2022-06-21 00:38:00,,0824.6,5.01,0.00,29.2,27.0,00.0,37.9,31.0,07.2,0000.0,0015.03,0004.72,0002.98
2022-06-21 00:39:00,,0824.8,4.99,0.00,29.2,27.1,00.0,37.9,31.0,07.3,0000.0,0015.44,0004.76,0002.99
2022-06-21 00:40:00,,0824.7,5.00,0.00,29.2,27.3,00.0,37.9,31.0,07.2,0000.0,0015.10,0004.77,0002.99
2022-06-21 00:41:00,,0824.8,5.00,0.00,29.2,27.5,00.0,37.9,31.1,07.2,0000.0,0014.70,0004.77,0002.98
2022-06-21 00:42:00,,0824.7,4.99,0.00,29.2,27.7,00.0,37.9,31.1,07.2,0000.0,0014.16,0004.78,0002.96
2022-06-21 00:43:00,,0824.8,5.00,0.00,29.2,27.9,00.0,38.0,31.2,07.2,0000.0,0013.79,0004.74,0002.93
2022-06-21 00:44:00,,0824.8,4.99,0.00,29.2,28.1,00.0,38.0,31.2,07.2,0000.0,0013.80,0004.78,0002.92
2022-06-21 00:45:00,,0824.7,5.01,0.00,29.3,28.2,00.0,38.0,31.3,07.3,0000.0,0014.15,0004.79,0002.91
2022-06-21 00:46:00,,0824.6,5.00,0.00,29.3,28.4,00.0,38.0,31.3,07.3,0000.0,0013.92,0004.81,0002.88
2022-06-21 00:47:00,,0824.6,5.00,0.00,29.4,28.5,00.0,38.0,31.4,07.2,0000.0,0014.06,0004.79,0002.84
2022-06-21 00:48:00,,0824.5,4.99,0.00,29.4,28.6,00.0,38.1,31.4,07.3,0000.0,0013.41,0004.76,0002.81
2022-06-21 00:49:00,,0824.5,5.01,0.00,29.4,28.3,00.0,38.0,31.4,07.1,0000.0,0012.40,0004.68,0002.79
2022-06-21 00:50:00,,0824.6,5.01,0.00,29.4,27.4,00.0,38.0,31.1,07.0,0000.0,0011.56,0004.60,0002.76
2022-06-21 00:51:00,,0824.6,5.00,0.00,29.3,26.9,00.0,37.9,31.0,07.0,0000.0,0012.04,0004.65,0002.72
2022-06-21 00:52:00,,0824.6,4.99,0.00,29.2,27.0,00.0,37.9,31.0,07.0,0000.0,0012.42,0004.69,0002.70
2022-06-21 00:53:00,,0824.7,5.00,0.00,29.2,27.1,00.0,37.9,31.0,07.0,0000.0,0012.58,0004.67,0002.67
2022-06-21 00:54:00,,0824.8,4.99,0.00,29.2,27.3,00.0,37.9,31.0,06.9,0000.0,0013.03,0004.73,0002.65
2022-06-21 00:55:00,,0824.9,4.99,0.00,29.2,27.5,00.0,37.9,31.0,07.0,0000.0,0013.45,0004.75,0002.60
2022-06-21 00:56:00,,0824.9,5.01,0.00,29.2,27.7,00.0,37.9,31.1,07.0,0000.0,0013.02,0004.74,0002.59
2022-06-21 00:57:00,,0825.0,5.01,0.00,29.2,27.9,00.0,38.0,31.1,06.9,0000.0,0013.00,0004.75,0002.56
2022-06-21 00:58:00,,0824.9,4.99,0.00,29.2,28.0,00.0,38.0,31.2,06.8,0000.0,0013.17,0004.74,0002.55
2022-06-21 00:59:00,,0825.0,5.00,0.00,29.3,28.2,00.0,38.0,31.2,06.8,0000.0,0012.97,0004.75,0002.54
